This is the latest recevied weather packets stored in our database for station/object KC3AWA. If no packets are shown the sender has not sent any weather packets the latest 10 day(s).
| Time | Temp. | Humidity | Pressure | Rain* | Wind** | Luminosity | Snow |
|---|---|---|---|---|---|---|---|
| 1777993640 | 20° C | 61% | 1008 hPa | 0 mm | - | 773 W/m² | - |
| 1777993338 | 20° C | 60% | 1008.1 hPa | 0 mm | - | 607 W/m² | - |
| 1777993032 | 18.89° C | 65% | 1008.2 hPa | 0 mm | - | 744 W/m² | - |
| 1777992731 | 18.33° C | 63% | 1008.1 hPa | 0 mm | - | 684 W/m² | - |
| 1777992428 | 18.33° C | 64% | 1008.4 hPa | 0 mm | - | 295 W/m² | - |
| 1777992126 | 17.78° C | 65% | 1008.2 hPa | 0 mm | - | 292 W/m² | - |
| 1777991823 | 17.78° C | 65% | 1008.3 hPa | 0 mm | - | 330 W/m² | - |
| 1777991520 | 17.78° C | 68% | 1008 hPa | 0 mm | - | 350 W/m² | - |
| 1777991217 | 17.78° C | 68% | 1008 hPa | 0 mm | - | 282 W/m² | - |
| 1777990915 | 17.78° C | 67% | 1008.3 hPa | 0 mm | - | 254 W/m² | - |
| 1777990612 | 17.22° C | 66% | 1008.4 hPa | 0 mm | - | 222 W/m² | - |
| 1777990005 | 17.78° C | 64% | 1008.4 hPa | 0 mm | - | 140 W/m² | - |
| 1777989702 | 17.78° C | 63% | 1008.3 hPa | 0 mm | - | 151 W/m² | - |
| 1777989398 | 17.78° C | 64% | 1008.2 hPa | 0 mm | - | 196 W/m² | - |
| 1777989095 | 17.78° C | 62% | 1008.3 hPa | 0 mm | - | 169 W/m² | - |
| 1777988790 | 17.78° C | 63% | 1008.2 hPa | 0 mm | - | 182 W/m² | - |
| 1777988488 | 17.78° C | 64% | 1008.3 hPa | 0 mm | - | 190 W/m² | - |
| 1777988185 | 17.78° C | 64% | 1008 hPa | 0 mm | - | 210 W/m² | - |
| 1777987881 | 17.78° C | 64% | 1008 hPa | 0 mm | - | 200 W/m² | - |
| 1777987577 | 17.78° C | 64% | 1008.2 hPa | 0 mm | - | 152 W/m² | - |
| 1777987275 | 17.78° C | 63% | 1008.2 hPa | 0 mm | - | 166 W/m² | - |
| 1777986971 | 17.78° C | 64% | 1008.2 hPa | 0 mm | - | 185 W/m² | - |
| 1777986670 | 17.78° C | 63% | 1008 hPa | 0 mm | - | 208 W/m² | - |
| 1777986368 | 17.78° C | 64% | 1008.2 hPa | 0 mm | - | 178 W/m² | - |
| 1777986066 | 17.78° C | 64% | 1008.3 hPa | 0 mm | - | 229 W/m² | - |
* Rain latest hour (hover to see other rain measurements)
** Current wind speed in m/s (hover to see current wind gust speed)